Weather History for KJWG - May, 2013

Change the Weather History Date:

Thursday, May 2, 2013

  Actual Average Record
Temperature  
Mean Temperature 43 °F -  
Max Temperature 52 °F 72 °F - (-1)
Min Temperature 34 °F 50 °F - (-1)
Degree Days  
Heating Degree Days 22    
Moisture  
Dew Point 36 °F    
Average Humidity 83    
Maximum Humidity 100    
Minimum Humidity 47    
Precipitation  
Precipitation 0.32 in - - ()
Sea Level Pressure  
Sea Level Pressure 30.40 in    
Wind  
Wind Speed 22 mph (North)    
Max Wind Speed 30 mph    
Max Gust Speed 41 mph    
Visibility 9 miles    
Events Rain , Thunderstorm    
Averages and records for this station are not official NWS values.
T = Trace of Precipitation, MM = Missing Value Source: NWS Daily Summary

Daily Weather History Graph

Daily Weather History Graph

Search for Another Location

Airport or City:

Trip Planner

Search our weather history database for the weather conditions in past years. The results will help you decide how hot, cold, wet, or windy it might be!

Date:

Astronomy

May. 02, 2013 Rise Set
Actual Time 6:40 AM CDT 8:21 PM CDT
Civil Twilight 6:12 AM CDT 8:49 PM CDT
Nautical Twilight 5:39 AM CDT 9:22 PM CDT
Astronomical Twilight 5:04 AM CDT 9:57 PM CDT
Moon 2:13 AM CDT (5/2) 1:26 PM CDT (5/2)
Length of Visible Light 14h 36m
Length of Day
13h 41m
Waning Gibbous, 47% of the Moon is Illuminated
May 2
Waning Gibbous
May 9
New
May 17
First Quarter
May 24
Full
May 31
Last Quarter

Hourly Weather History & Observations

Time (CDT) Temp. Windchill Dew Point Humidity Pressure Visibility Wind Dir Wind Speed Gust Speed Precip Events Conditions
12:15 AM 41.2 °F 31.6 °F 37.4 °F 86% 30.25 in 10.0 mi North 21.9 mph 34.5 mph N/A   Overcast
12:35 AM 40.8 °F 30.7 °F 37.8 °F 89% 30.25 in 10.0 mi North 24.2 mph 34.5 mph N/A   Overcast
12:55 AM 40.1 °F 30.2 °F 38.1 °F 93% 30.26 in 10.0 mi North 21.9 mph 28.8 mph N/A Thunderstorm Overcast
1:15 AM 39.4 °F 29.5 °F 37.8 °F 94% 30.27 in 10.0 mi North 20.7 mph 32.2 mph N/A   Overcast
1:35 AM 39.4 °F 28.5 °F 37.6 °F 93% 30.28 in 10.0 mi North 25.3 mph 38.0 mph N/A   Overcast
1:55 AM 39.6 °F 29.5 °F 37.6 °F 93% 30.28 in 10.0 mi North 21.9 mph 32.2 mph N/A   Overcast
2:15 AM 39.7 °F 29.2 °F 37.4 °F 91% 30.29 in 10.0 mi North 24.2 mph 34.5 mph N/A   Overcast
2:35 AM 39.4 °F 28.7 °F 37.9 °F 95% 30.30 in 10.0 mi North 24.2 mph 29.9 mph N/A   Light Drizzle
2:55 AM 39.2 °F 29.8 °F 38.3 °F 97% 30.29 in 10.0 mi North 18.4 mph 29.9 mph N/A   Light Drizzle
3:15 AM 38.7 °F 29.1 °F 38.7 °F 100% 30.30 in 10.0 mi North 18.4 mph 33.4 mph N/A Rain Light Rain
3:35 AM 38.5 °F 27.8 °F 38.5 °F 100% 30.30 in 10.0 mi NNW 23.0 mph 29.9 mph N/A   Overcast
3:55 AM 38.3 °F 29.3 °F 38.3 °F 100% 30.31 in 7.0 mi NNW 16.1 mph 28.8 mph N/A   Light Drizzle
4:15 AM 37.8 °F 26.8 °F 37.8 °F 100% 30.31 in 5.0 mi North 23.0 mph 32.2 mph 0.01 in Rain Light Rain
4:35 AM 37.8 °F 27.4 °F 37.8 °F 100% 30.32 in 10.0 mi North 20.7 mph 27.6 mph 0.01 in Rain Light Rain
4:55 AM 37.8 °F 26.6 °F 37.8 °F 100% 30.33 in 10.0 mi NNW 24.2 mph 33.4 mph 0.01 in Thunderstorm Thunderstorm
5:15 AM 37.4 °F 25.9 °F 37.4 °F 100% 30.32 in 5.0 mi North 25.3 mph 38.0 mph 0.02 in Rain Rain
5:35 AM 37.4 °F 27.8 °F 37.4 °F 100% 30.35 in 3.0 mi North 17.3 mph 29.9 mph 0.11 in Rain , Thunderstorm Heavy Thunderstorms and Rain
5:55 AM 37.4 °F 27.5 °F 37.4 °F 100% 30.38 in 3.0 mi NNW 18.4 mph 32.2 mph 0.19 in Rain , Thunderstorm Rain
6:15 AM 37.4 °F 27.2 °F 37.4 °F 100% 30.37 in 3.0 mi NNW 19.6 mph 29.9 mph 0.05 in Rain Light Rain
6:35 AM 36.9 °F 25.4 °F 36.9 °F 100% 30.38 in 10.0 mi North 24.2 mph 29.9 mph 0.05 in   Light Drizzle
6:55 AM 37.0 °F 25.4 °F 37.0 °F 100% 30.35 in 10.0 mi North 25.3 mph 33.4 mph 0.05 in   Overcast
7:15 AM 36.9 °F 25.4 °F 36.9 °F 100% 30.38 in 10.0 mi North 24.2 mph 29.9 mph N/A   Overcast
7:35 AM 36.7 °F 24.9 °F 36.7 °F 100% 30.37 in 10.0 mi North 25.3 mph 34.5 mph 0.01 in   Overcast
7:55 AM 37.2 °F 25.6 °F 37.2 °F 100% 30.39 in 10.0 mi North 25.3 mph 36.8 mph 0.01 in   Overcast
8:15 AM 37.4 °F 26.1 °F 37.4 °F 100% 30.39 in 10.0 mi North 24.2 mph 35.7 mph N/A   Overcast
8:35 AM 37.4 °F 26.1 °F 37.4 °F 100% 30.41 in 10.0 mi North 24.2 mph 32.2 mph N/A   Overcast
8:55 AM 37.4 °F 25.6 °F 37.4 °F 100% 30.41 in 10.0 mi North 26.5 mph 35.7 mph N/A   Overcast
9:15 AM 37.4 °F 25.9 °F 37.4 °F 100% 30.41 in 5.0 mi North 25.3 mph 31.1 mph N/A Rain Light Rain
9:35 AM 34.9 °F 24.2 °F 34.9 °F 100% 30.43 in 2.5 mi North 18.4 mph 27.6 mph 0.04 in Rain Light Rain
9:55 AM 36.0 °F 24.2 °F 36.0 °F 100% 30.45 in 10.0 mi North 24.2 mph 32.2 mph 0.05 in Rain Light Rain
10:15 AM 36.3 °F 25.2 °F 36.3 °F 100% 30.44 in 7.0 mi North 21.9 mph 31.1 mph N/A Rain Light Rain
10:35 AM 36.9 °F 25.6 °F 36.9 °F 100% 30.44 in 5.0 mi North 23.0 mph 35.7 mph N/A Rain Light Rain
10:55 AM 37.2 °F 26.1 °F 37.2 °F 100% 30.45 in 7.0 mi North 23.0 mph 32.2 mph 0.01 in Rain Light Rain
11:35 AM 36.7 °F 24.4 °F 36.7 °F 100% 30.47 in 7.0 mi North 27.6 mph 36.8 mph N/A   Light Drizzle
11:55 AM 36.7 °F 24.9 °F 36.7 °F 100% 30.48 in 7.0 mi North 25.3 mph 34.5 mph N/A   Light Drizzle
12:15 PM 36.9 °F 24.2 °F 36.9 °F 100% 30.47 in 10.0 mi North 29.9 mph 39.1 mph N/A   Overcast
12:35 PM 37.4 °F 26.6 °F 37.4 °F 100% 30.47 in 10.0 mi North 21.9 mph 32.2 mph N/A   Overcast
12:55 PM 38.7 °F 27.8 °F 38.7 °F 100% 30.47 in 10.0 mi North 24.2 mph - N/A   Overcast
1:15 PM 38.8 °F 26.9 °F 38.8 °F 100% 30.46 in 10.0 mi North 29.9 mph 38.0 mph N/A   Overcast
1:35 PM 39.2 °F 27.8 °F 39.2 °F 100% 30.46 in 10.0 mi North 27.6 mph 41.4 mph N/A   Overcast
1:55 PM 40.5 °F 29.5 °F 37.9 °F 91% 30.46 in 10.0 mi North 27.6 mph 35.7 mph N/A   Overcast
2:15 PM 42.8 °F 33.1 °F 35.8 °F 76% 30.46 in 10.0 mi North 25.3 mph 36.8 mph N/A   Overcast
2:35 PM 45.3 °F 36.1 °F 37.2 °F 73% 30.46 in 10.0 mi North 27.6 mph 34.5 mph N/A   Overcast
2:55 PM 48.0 °F - 37.9 °F 68% 30.45 in 10.0 mi North 26.5 mph 36.8 mph N/A   Overcast
3:15 PM 48.0 °F - 37.0 °F 66% 30.44 in 10.0 mi North 24.2 mph 33.4 mph N/A   Overcast
3:35 PM 49.5 °F - 35.4 °F 58% 30.43 in 10.0 mi North 28.8 mph 38.0 mph N/A   Overcast
3:55 PM 49.8 °F - 36.0 °F 59% 30.43 in 10.0 mi North 27.6 mph 34.5 mph N/A   Overcast
4:15 PM 50.7 °F - 34.3 °F 53% 30.43 in 10.0 mi North 25.3 mph 35.7 mph N/A   Overcast
4:35 PM 50.4 °F - 33.6 °F 53% 30.43 in 10.0 mi North 23.0 mph 33.4 mph N/A   Overcast
4:55 PM 50.5 °F - 33.6 °F 52% 30.42 in 10.0 mi North 26.5 mph 34.5 mph N/A   Overcast
5:15 PM 51.1 °F - 33.6 °F 51% 30.42 in 10.0 mi North 25.3 mph 34.5 mph N/A   Overcast
5:35 PM 51.1 °F - 33.3 °F 51% 30.42 in 10.0 mi North 20.7 mph 28.8 mph N/A   Overcast
5:55 PM 52.0 °F - 32.0 °F 47% 30.42 in 10.0 mi North 26.5 mph 32.2 mph N/A   Overcast
6:15 PM 51.1 °F - 32.5 °F 49% 30.42 in 10.0 mi North 24.2 mph 31.1 mph N/A   Scattered Clouds
6:35 PM 50.7 °F - 31.8 °F 48% 30.42 in 10.0 mi North 20.7 mph 32.2 mph N/A   Clear
6:55 PM 50.4 °F - 31.3 °F 48% 30.42 in 10.0 mi North 21.9 mph 29.9 mph N/A   Clear
7:15 PM 50.0 °F - 31.8 °F 50% 30.42 in 10.0 mi North 18.4 mph 27.6 mph N/A   Clear
7:35 PM 49.1 °F - 30.9 °F 50% 30.42 in 10.0 mi North 16.1 mph 27.6 mph N/A   Clear
7:55 PM 48.0 °F - 31.6 °F 53% 30.42 in 10.0 mi North 12.7 mph 19.6 mph N/A   Clear
8:15 PM 45.9 °F 40.8 °F 32.9 °F 61% 30.42 in 10.0 mi North 10.4 mph - N/A   Clear
8:35 PM 43.9 °F 39.3 °F 34.3 °F 69% 30.43 in 10.0 mi North 8.1 mph - N/A   Clear
8:55 PM 42.4 °F 38.1 °F 34.7 °F 74% 30.43 in 10.0 mi North 6.9 mph - N/A   Clear
9:15 PM 41.4 °F 36.8 °F 34.9 °F 78% 30.43 in 10.0 mi North 6.9 mph - N/A   Clear
9:35 PM 40.6 °F 36.0 °F 34.7 °F 79% 30.43 in 10.0 mi North 6.9 mph - N/A   Clear
9:55 PM 41.2 °F 36.6 °F 34.0 °F 76% 30.43 in 10.0 mi NNW 6.9 mph - N/A   Clear
10:15 PM 41.5 °F 36.4 °F 34.0 °F 75% 30.43 in 10.0 mi North 8.1 mph - N/A   Clear
10:35 PM 41.9 °F 36.3 °F 33.8 °F 73% 30.43 in 10.0 mi North 9.2 mph - N/A   Clear
10:55 PM 42.1 °F 37.1 °F 33.4 °F 71% 30.43 in 10.0 mi North 8.1 mph - N/A   Clear
11:15 PM 41.7 °F 36.7 °F 33.8 °F 73% 30.43 in 10.0 mi North 8.1 mph - N/A   Clear
11:35 PM 41.0 °F 35.8 °F 33.6 °F 75% 30.42 in 10.0 mi NNW 8.1 mph - N/A   Clear
11:55 PM 40.3 °F 34.9 °F 33.8 °F 78% 30.42 in 10.0 mi North 8.1 mph - N/A   Clear